Location: Caltech
(34.1382°N, 118.1253°W)
Time: 09:07:17
(UTC-08:00)

Cosmos 44 Rocket - Visible Passes

Search period start: 11 February 2016 00:00
Search period end: 21 February 2016 00:00
Orbit: 638 x 753 km, 65.1° (Epoch: 10 February)

Date Brightness Start Highest point End Pass type
(mag) Time Alt. Az. Time Alt. Az. Time Alt. Az.
11 Feb 5.3 20:03:31 10° NNW 20:05:19 22° NNW 20:05:19 22° NNW visible
12 Feb 4.5 19:04:28 10° N 19:08:12 27° NE 19:08:12 27° NE visible
12 Feb 6.1 20:45:54 10° NW 20:46:59 15° NW 20:46:59 15° NW visible
13 Feb 5.3 18:06:33 10° NNE 18:08:54 13° NE 18:11:15 10° ENE visible
13 Feb 3.8 19:45:54 10° NNW 19:50:04 57° NNW 19:50:04 57° NNW visible
14 Feb 4.0 18:46:39 10° NNW 18:51:29 37° NE 18:53:22 28° E visible
14 Feb 5.5 20:28:39 10° NW 20:32:12 24° W 20:32:12 24° W visible
15 Feb 3.7 19:28:20 10° NW 19:33:32 66° WSW 19:35:50 32° S visible
16 Feb 3.7 18:28:53 10° NNW 18:33:57 48° ENE 18:38:56 10° SE visible
16 Feb 5.9 20:11:36 10° WNW 20:15:04 18° WSW 20:18:31 10° SSW visible
17 Feb 4.4 19:10:51 10° NW 19:15:53 48° WSW 19:20:47 10° S visible
18 Feb 3.4 18:11:11 10° NNW 18:16:23 64° ENE 18:21:29 10° SE visible
18 Feb 6.4 19:54:56 10° WNW 19:57:19 13° WSW 19:59:41 10° SW visible
19 Feb 5.1 18:53:27 10° NW 18:58:11 36° WSW 19:02:50 10° S visible
